Location: Sabalos
(43.2860°N, 0.1414°E)
Time: 10:48:20
(UTC+00:00)

Cosmos 2333 Rocket - Pass Details

Date: 05 July 2020
Orbit: 837 x 864 km, 70.8° (Epoch: 05 August)

Event Time Altitude Azimuth Distance (km) Brightness Sun altitude
Exits shadow 20:39:21 - 170° (S) 2,963 4.6 -9.0°
Reaches altitude 10° 20:40:51 10° 163° (SSE) 2,458 4.1 -9.2°
Maximum altitude 20:45:42 31° 104° (ESE) 1,463 3.0 -9.8°
Drops below altitude 10° 20:50:37 10° 44° (NE) 2,489 4.7 -10.5°
Sets 20:53:20 0° 35° (NE) 3,434 5.5 -10.8°
